Beckley, WV

8:24 AM EDT on July 25, 2017 (GMT -0400)
Raleigh County Memorial

Weather History for KBKW - June, 2014

Change the Weather History Date:

Wednesday, June 11, 2014

  Actual Average Record
Temperature  
Mean Temperature 72 °F 66 °F  
Max Temperature 80 °F 76 °F 92 °F (1947)
Min Temperature 63 °F 57 °F 32 °F (1972)
Degree Days  
Heating Degree Days 0 2  
Month to date heating degree days 8 26  
Since 1 June heating degree days 8 26  
Since 1 July heating degree days 5439 5327  
Cooling Degree Days 7 3  
Month to date cooling degree days 43 27  
Year to date cooling degree days 118 68  
Since 1 June cooling degree days 43 27  
Growing Degree Days 22 (Base 50)    
Moisture  
Dew Point 61 °F    
Average Humidity 75    
Maximum Humidity 90    
Minimum Humidity 60    
Precipitation  
Precipitation 0.46 in 0.13 in 1.25 in (1899)
Month to date precipitation 1.34 1.49  
Year to date precipitation 15.46 18.65  
Snow  
Snow 0.00 in - - ()
Month to date snowfall 0.0  
Since 1 September snowfall 76.3  
Snow Depth 0.00 in    
Sea Level Pressure  
Sea Level Pressure 29.89 in    
Wind  
Wind Speed 8 mph (SE)    
Max Wind Speed 32 mph    
Max Gust Speed 46 mph    
Visibility 8 miles    
Events Fog , Rain    
T = Trace of Precipitation, MM = Missing Value Source: NWS Daily Summary

Daily Weather History Graph

Daily Weather History Graph

Search for Another Location

Airport or City:

Trip Planner

Search our weather history database for the weather conditions in past years. The results will help you decide how hot, cold, wet, or windy it might be!

Date:

Astronomy

Jun. 11, 2014 Rise Set
Actual Time 6:02 AM EDT 8:46 PM EDT
Civil Twilight 5:30 AM EDT 9:17 PM EDT
Nautical Twilight 4:51 AM EDT 9:56 PM EDT
Astronomical Twilight 4:07 AM EDT 10:40 PM EDT
Moon 7:16 PM EDT (6/11) 4:48 AM EDT (6/11)
Length of Visible Light 15h 46m
Length of Day
14h 44m
Waxing Gibbous, 97% of the Moon is Illuminated
Jun 11
Waxing Gibbous
Jun 13
Full
Jun 19
Last Quarter
Jun 27
New
Jul 5
First Quarter

Hourly Weather History & Observations

Time (EDT) Temp. Dew Point Humidity Pressure Visibility Wind Dir Wind Speed Gust Speed Precip Events Conditions
12:51 AM 64.0 °F 61.0 °F 90% 29.91 in 10.0 mi SE 9.2 mph - 0.00 in   Mostly Cloudy
1:51 AM 64.0 °F 61.0 °F 90% 29.89 in 10.0 mi SE 8.1 mph - N/A   Overcast
2:51 AM 64.9 °F 60.1 °F 84% 29.88 in 10.0 mi SSE 8.1 mph - N/A   Mostly Cloudy
3:51 AM 64.0 °F 60.1 °F 87% 29.88 in 10.0 mi SE 10.4 mph - N/A   Mostly Cloudy
4:51 AM 63.0 °F 59.0 °F 87% 29.87 in 10.0 mi SE 8.1 mph - N/A   Scattered Clouds
5:51 AM 63.0 °F 59.0 °F 87% 29.88 in 10.0 mi SSE 8.1 mph - N/A   Overcast
6:51 AM 64.0 °F 60.1 °F 87% 29.89 in 10.0 mi SE 8.1 mph - N/A   Scattered Clouds
7:51 AM 64.9 °F 60.1 °F 84% 29.89 in 10.0 mi SE 5.8 mph - N/A   Partly Cloudy
8:51 AM 66.9 °F 61.0 °F 81% 29.89 in 10.0 mi SE 6.9 mph - 0.00 in Rain Light Rain
9:51 AM 68.0 °F 61.0 °F 78% 29.92 in 10.0 mi SE 10.4 mph - 0.00 in   Mostly Cloudy
10:51 AM 72.0 °F 61.0 °F 68% 29.93 in 10.0 mi SE 10.4 mph - N/A   Clear
11:51 AM 73.9 °F 61.0 °F 64% 29.93 in 10.0 mi SSE 9.2 mph - N/A   Clear
12:51 PM 73.0 °F 61.0 °F 66% 29.92 in 10.0 mi SE 8.1 mph - N/A   Mostly Cloudy
1:51 PM 77.0 °F 62.6 °F 61% 29.97 in 10.0 mi SE 8.1 mph - N/A   Clear
2:51 PM 77.0 °F 62.1 °F 60% 29.85 in 10.0 mi SE 12.7 mph 19.6 mph N/A   Clear
3:51 PM 68.0 °F 62.1 °F 81% 29.84 in 2.5 mi ENE 8.1 mph - 0.03 in Rain Light Rain
3:58 PM 70.0 °F 64.0 °F 81% 29.92 in 10.0 mi Variable 3.5 mph - 0.00 in   Mostly Cloudy
4:20 PM 66.0 °F 63.0 °F 90% 29.96 in 0.5 mi West 32.2 mph 46.0 mph 0.00 in Fog , Rain Light Rain
4:23 PM 64.0 °F 61.0 °F 90% 29.95 in 0.2 mi West 17.3 mph 46.0 mph 0.12 in Fog , Rain Heavy Rain
4:25 PM 63.0 °F 60.1 °F 90% 29.95 in 0.2 mi West 15.0 mph 46.0 mph 0.28 in Fog , Rain Heavy Rain
4:30 PM 64.0 °F 61.0 °F 90% 29.95 in 0.5 mi Variable 3.5 mph 23.0 mph 0.36 in Fog , Rain Heavy Rain
4:33 PM 64.9 °F 62.1 °F 90% 29.95 in 1.0 mi South 4.6 mph - 0.41 in Rain Heavy Rain
4:40 PM 66.0 °F 63.0 °F 90% 29.94 in 4.0 mi WSW 6.9 mph - 0.43 in Rain Light Rain
4:51 PM 66.0 °F 62.1 °F 87% 29.87 in 10.0 mi Calm Calm - 0.43 in Rain Light Rain
5:51 PM 69.1 °F 63.0 °F 81% 29.84 in 10.0 mi Variable 3.5 mph - 0.00 in Rain Light Rain
6:51 PM 70.0 °F 64.0 °F 81% 29.82 in 10.0 mi ESE 3.5 mph - 0.00 in   Scattered Clouds
7:51 PM 73.0 °F 64.9 °F 76% 29.81 in 10.0 mi SE 9.2 mph - N/A   Scattered Clouds
8:51 PM 71.1 °F 59.0 °F 66% 29.83 in 10.0 mi SE 9.2 mph - N/A   Clear
9:51 PM 70.0 °F 57.9 °F 65% 29.84 in 10.0 mi SSE 6.9 mph - N/A   Clear
10:51 PM 70.0 °F 60.1 °F 71% 29.84 in 10.0 mi SE 6.9 mph - N/A   Clear
11:51 PM 68.0 °F 61.0 °F 78% 29.84 in 10.0 mi ESE 11.5 mph 21.9 mph 0.00 in Rain Light Rain